DateTime,F1_A11,F1_S11,BsB_S11,BsG_S11,BsR_S11,BbsB_S11,BbsG_S11,BbsR_S11,BaB_A11,BaG_A11,BaR_A11,T_S11,U_S11,P_S11,T1_A11
2016-10-30T00:00:00Z,0000380,21000600,,,,,,,,,,27.0,00.0,0664.7,34.6
2016-10-30T00:01:00Z,0000380,21000600,,,,,,,,,,27.0,00.0,0664.7,34.6
2016-10-30T00:02:00Z,0000380,21000600,,,,,,,,,,27.0,00.0,0664.7,34.6
2016-10-30T00:03:00Z,0000380,61000600,,,,,,,,,,27.0,00.0,0664.7,34.6
2016-10-30T00:04:00Z,0000380,41000600,0000.17,0000.51,0000.18,-000.06,-000.35,-000.05,0000.08,0000.00,-000.05,27.1,00.0,0665.7,34.7
2016-10-30T00:05:00Z,0000380,01000600,0000.58,0000.39,0000.26,-000.04,0000.19,0000.20,-000.00,0000.03,0000.08,27.2,00.0,0665.8,34.7
2016-10-30T00:06:00Z,0000380,01000600,0000.17,-000.28,-000.26,0000.02,-000.09,0000.42,-000.02,0000.19,0000.01,27.2,00.0,0665.8,34.7
2016-10-30T00:07:00Z,0000380,01000600,0000.03,0000.23,0000.23,-000.38,-000.01,0000.07,0000.33,0000.05,0000.16,27.2,00.0,0665.8,34.7
2016-10-30T00:08:00Z,0000380,01000600,0000.05,0000.41,0000.77,0000.55,0000.23,0000.34,0000.15,0000.01,-000.06,27.2,00.0,0665.8,34.7
2016-10-30T00:09:00Z,0000380,01000600,0000.69,0000.28,0000.15,0000.37,0000.01,-000.04,0000.19,0000.30,0000.43,27.2,00.0,0665.8,34.6
2016-10-30T00:10:00Z,0000380,01000600,0001.20,0001.00,0000.12,-000.23,-000.11,-000.02,0000.10,-000.03,-000.14,27.2,00.0,0665.8,34.6
2016-10-30T00:11:00Z,0000380,01000600,0000.43,0000.48,0000.20,-000.26,0000.07,0000.11,0000.19,0000.11,-000.15,27.2,00.0,0665.8,34.6
2016-10-30T00:12:00Z,0000380,01000600,-000.53,0000.59,-000.03,0000.26,0000.13,-000.08,-000.22,-000.08,0000.23,27.2,00.0,0665.8,34.6
2016-10-30T00:13:00Z,0000380,01000600,0001.02,0000.52,0000.20,-000.41,0000.04,-000.17,0000.16,0000.02,-000.04,27.2,00.0,0665.8,34.6
2016-10-30T00:14:00Z,0000380,01000600,0000.57,0000.31,0000.21,0000.29,-000.41,0000.31,-000.05,0000.07,-000.21,27.1,00.0,0665.8,34.6
2016-10-30T00:15:00Z,0000380,01000600,0000.42,0000.23,-000.23,0000.27,-000.08,-000.03,0000.17,0000.11,0000.04,27.1,00.0,0665.8,34.6
2016-10-30T00:16:00Z,0000380,01000600,-000.07,0000.66,0000.08,0000.60,-000.08,-000.27,0000.06,0000.14,0000.18,27.2,00.0,0665.7,34.6
2016-10-30T00:17:00Z,0000380,01000600,0000.29,0000.21,-000.25,0000.06,-000.27,-000.56,0000.02,-000.03,0000.22,27.2,00.0,0665.8,34.6
2016-10-30T00:18:00Z,0000380,01000600,0000.14,0000.15,-000.03,-000.48,-000.30,0000.15,0000.44,0000.30,0000.30,27.2,00.0,0665.8,34.6
2016-10-30T00:19:00Z,0000380,01000600,0000.40,0000.47,0000.03,0000.67,-000.45,0000.07,-000.21,-000.05,-000.15,27.2,00.0,0665.8,34.7
2016-10-30T00:20:00Z,0000380,01000600,0000.23,0000.49,0000.28,0000.74,-000.01,0000.00,0000.18,0000.19,0000.16,27.2,00.0,0665.8,34.7
2016-10-30T00:21:00Z,0000380,01000600,0000.11,-000.24,0000.62,0000.26,-000.36,0000.11,-000.01,-000.07,0000.10,27.2,00.0,0665.8,34.7
2016-10-30T00:22:00Z,0000380,01000600,0000.81,-000.18,0000.46,0000.03,0000.02,0000.27,0000.24,0000.28,0000.02,27.3,00.0,0665.8,34.7
2016-10-30T00:23:00Z,0000380,01000600,-000.31,0000.37,0000.69,-000.74,0000.21,0000.25,-000.15,-000.15,0000.07,27.3,00.0,0665.8,34.6
2016-10-30T00:24:00Z,0000380,01000600,0000.31,0000.68,-000.23,-000.04,-000.36,-000.10,0000.26,0000.15,-000.01,27.3,00.0,0665.8,34.6
2016-10-30T00:25:00Z,0000380,01000600,0000.71,0000.23,0000.06,-000.12,0000.02,-000.01,-000.12,-000.04,-000.22,27.2,00.0,0665.8,34.6
2016-10-30T00:26:00Z,0000380,01000600,0000.85,0000.37,-000.07,-000.45,-000.14,0000.24,-000.03,0000.05,0000.02,27.2,00.0,0665.8,34.6
2016-10-30T00:27:00Z,0000380,01000600,-000.09,0000.03,-000.01,-000.22,0000.17,0000.27,0000.22,-000.03,-000.08,27.2,00.0,0665.7,34.6
2016-10-30T00:28:00Z,0000380,01000600,0000.51,-000.02,-000.02,0000.16,-000.25,0000.42,-000.02,0000.32,0000.20,27.2,00.0,0665.7,34.6
2016-10-30T00:29:00Z,0000380,01000600,0000.43,-000.08,0000.14,0000.22,0000.08,0000.16,0000.09,-000.23,-000.04,27.1,00.0,0665.7,34.6
2016-10-30T00:30:00Z,0000380,01000600,-000.00,0000.46,0000.25,-000.22,-000.01,-000.22,0000.01,0000.23,0000.31,27.1,00.0,0665.7,34.6
2016-10-30T00:31:00Z,0000380,01000600,0000.49,0000.31,0000.60,0000.02,0000.01,0000.03,0000.14,0000.01,-000.15,27.1,00.0,0665.7,34.6
2016-10-30T00:32:00Z,0000380,01000600,0000.61,0000.39,0000.13,-000.62,0000.57,-000.18,0000.11,-000.08,0000.01,27.2,00.0,0665.7,34.6
2016-10-30T00:33:00Z,0000380,01000600,0000.72,0000.85,0000.18,0000.18,0000.08,0000.18,-000.01,0000.19,0000.14,27.2,00.0,0665.7,34.6
2016-10-30T00:34:00Z,0000380,01000600,0001.08,0000.34,0000.17,0000.67,-000.62,0000.07,0000.12,0000.32,0000.17,27.2,00.0,0665.7,34.7
2016-10-30T00:35:00Z,0000380,01000600,-000.03,0000.18,-000.19,0000.33,0000.02,0000.03,0000.17,-000.18,0000.04,27.2,00.0,0665.7,34.7
2016-10-30T00:36:00Z,0000380,01000600,-000.43,0000.72,0000.44,0000.28,-000.11,0000.19,-000.02,0000.07,-000.12,27.3,00.0,0665.7,34.7
2016-10-30T00:37:00Z,0000380,01000600,0000.11,0000.28,0000.18,0000.16,-000.06,0000.16,0000.12,0000.07,0000.14,27.3,00.0,0665.6,34.7
2016-10-30T00:38:00Z,0000380,01000600,-000.38,-000.21,-000.12,-000.17,0000.00,0000.36,0000.18,0000.34,0000.39,27.3,00.0,0665.7,34.7
2016-10-30T00:39:00Z,0000380,01000600,0000.80,0000.62,-000.01,-000.36,0000.13,-000.38,0000.07,-000.17,-000.36,27.3,00.0,0665.7,34.7
2016-10-30T00:40:00Z,0000380,01000600,0001.54,-000.08,0000.01,0000.24,0000.16,-000.17,-000.16,0000.22,0000.24,27.3,00.0,0665.7,34.7
2016-10-30T00:41:00Z,0000380,01000600,0000.88,0000.71,-000.37,-000.08,-000.57,-000.13,0000.21,0000.07,-000.08,27.4,00.0,0665.7,34.6
2016-10-30T00:42:00Z,0000380,01000600,0000.19,0000.15,0000.03,-000.08,0000.01,-000.02,0000.18,-000.13,0000.02,27.4,00.0,0665.7,34.6
2016-10-30T00:43:00Z,0000380,01000600,0000.50,-000.23,0000.08,0000.15,-000.20,-000.14,0000.15,0000.19,0000.08,27.3,00.0,0665.7,34.6
2016-10-30T00:44:00Z,0000380,01000600,-000.09,0000.30,-000.20,-000.63,0000.00,0000.08,-000.13,0000.00,-000.07,27.3,00.0,0665.7,34.6
2016-10-30T00:45:00Z,0000380,01000600,0000.31,0000.55,-000.14,0000.26,-000.28,0000.28,0000.14,0000.08,0000.07,27.3,00.0,0665.7,34.6
2016-10-30T00:46:00Z,0000380,01000600,0000.27,0000.54,0000.18,-000.27,-000.31,0000.13,0000.05,0000.40,0000.40,27.3,00.0,0665.7,34.6
2016-10-30T00:47:00Z,0000380,01000600,0000.67,0000.71,0000.48,0000.48,0000.11,0000.25,0000.37,0000.08,0000.17,27.3,00.0,0665.7,34.6
2016-10-30T00:48:00Z,0000380,01000600,0000.92,0000.44,0000.21,-000.39,0000.40,0000.18,0000.01,0000.07,-000.07,27.3,00.0,0665.7,34.6
2016-10-30T00:49:00Z,0000380,01000600,-000.13,0001.12,0000.06,0000.07,0000.01,0000.07,0000.37,0000.29,0000.32,27.4,00.0,0665.7,34.7
2016-10-30T00:50:00Z,0000380,01000600,0000.54,0000.59,0000.17,0000.16,0000.27,0000.25,-000.08,0000.01,0000.01,27.4,00.0,0665.7,34.6
2016-10-30T00:51:00Z,0000380,01000600,-000.34,0000.51,0000.15,-000.69,-000.13,0000.16,0000.16,-000.02,-000.08,27.4,00.0,0665.7,34.6
2016-10-30T00:52:00Z,0000380,01000600,0000.63,0000.90,0000.35,-000.45,0000.38,0000.38,0000.01,0000.01,0000.46,27.4,00.0,0665.7,34.6
2016-10-30T00:53:00Z,0000380,01000600,-000.89,0001.34,-000.12,0000.32,-000.06,0000.09,0000.19,0000.08,-000.25,27.4,00.0,0665.6,34.6
2016-10-30T00:54:00Z,0000380,01000600,0001.17,0000.39,0000.27,0000.52,-000.02,0000.06,0000.05,0000.14,0000.04,27.3,00.0,0665.7,34.6
2016-10-30T00:55:00Z,0000380,01000600,0000.38,-000.15,0000.19,0000.36,-000.04,0000.24,0000.00,0000.11,-000.25,27.3,00.0,0665.6,34.6
2016-10-30T00:56:00Z,0000380,01000600,-000.71,0000.23,0000.34,0000.66,-000.34,0000.10,-000.05,-000.01,0000.34,27.2,00.0,0665.6,34.6
2016-10-30T00:57:00Z,0000380,41000600,,,,,,,,,,27.3,00.0,0665.7,34.5
2016-10-30T00:58:00Z,0000380,61000600,,,,,,,,,,27.1,00.0,0664.6,34.5
2016-10-30T00:59:00Z,0000380,21000600,,,,,,,,,,27.0,00.0,0664.6,34.5
2016-10-30T01:00:00Z,0000380,21000600,,,,,,,,,,27.0,00.0,0664.5,34.5
2016-10-30T01:01:00Z,0000380,21000600,,,,,,,,,,27.0,00.0,0664.5,34.5
2016-10-30T01:02:00Z,0000380,21000600,,,,,,,,,,27.0,00.0,0664.5,34.6
2016-10-30T01:03:00Z,0000380,61000600,,,,,,,,,,27.0,00.0,0664.5,34.6
2016-10-30T01:04:00Z,0000380,41000600,0000.22,0000.44,-000.03,-000.00,-000.40,-000.07,-000.09,-000.02,-000.09,27.1,00.0,0665.4,34.6
2016-10-30T01:05:00Z,0000380,01000600,0000.33,0000.33,0000.53,0000.42,0000.12,0000.50,-000.00,0000.10,0000.16,27.1,00.0,0665.5,34.6
2016-10-30T01:06:00Z,0000380,01000600,0000.11,0000.08,0000.25,0000.36,0000.10,-000.07,0000.19,0000.08,0000.18,27.1,00.0,0665.5,34.6
2016-10-30T01:07:00Z,0000380,01000600,-000.04,0000.62,-000.05,0000.55,0000.03,0000.06,0000.13,-000.17,-000.10,27.1,00.0,0665.5,34.6
2016-10-30T01:08:00Z,0000380,01000600,0001.43,0000.42,0000.38,0000.24,0000.18,0000.12,0000.05,0000.12,0000.04,27.1,00.0,0665.5,34.6
2016-10-30T01:09:00Z,0000380,01000600,0000.41,-000.30,0000.50,0000.87,-000.36,0000.13,-000.02,0000.14,-000.07,27.2,00.0,0665.5,34.6
2016-10-30T01:10:00Z,0000380,01000600,0000.31,0000.51,-000.01,0000.40,-000.46,-000.13,0000.19,0000.06,0000.17,27.2,00.0,0665.6,34.6
2016-10-30T01:11:00Z,0000380,01000600,0000.10,0000.27,0000.28,0000.21,0000.02,0000.22,0000.01,0000.20,0000.25,27.2,00.0,0665.6,34.6
2016-10-30T01:12:00Z,0000380,01000600,-000.21,0000.03,0000.53,0000.01,-000.01,0000.12,0000.06,-000.03,-000.48,27.1,00.0,0665.6,34.5
2016-10-30T01:13:00Z,0000380,01000600,0000.02,-000.55,-000.12,0000.16,0000.08,0000.23,0000.03,0000.15,0000.12,27.1,00.0,0665.6,34.5
2016-10-30T01:14:00Z,0000380,01000600,0001.23,0000.34,-000.12,0000.64,0000.18,0000.24,0000.07,0000.01,0000.25,27.1,00.0,0665.6,34.5
2016-10-30T01:15:00Z,0000380,01000600,0000.81,-000.06,0000.13,0000.70,0000.16,0000.08,0000.14,0000.03,0000.18,27.0,00.0,0665.5,34.6
2016-10-30T01:16:00Z,0000380,01000600,0000.66,0000.73,-000.03,0000.15,-000.20,0000.43,0000.10,0000.21,-000.05,27.0,00.0,0665.5,34.6
2016-10-30T01:17:00Z,0000380,01000600,-000.65,-000.33,-000.15,0000.09,0000.07,-000.05,0000.09,-000.15,0000.31,27.0,00.0,0665.6,34.6
2016-10-30T01:18:00Z,0000380,01000600,0000.10,0000.39,0000.30,0000.03,-000.43,0000.33,-000.04,0000.12,-000.03,27.0,00.0,0665.5,34.6
2016-10-30T01:19:00Z,0000380,01000600,-000.16,0000.03,-000.41,-000.60,-000.25,0000.14,0000.31,0000.31,0000.02,27.1,00.0,0665.5,34.6
2016-10-30T01:20:00Z,0000380,01000600,0000.43,0000.19,0000.22,-000.16,0000.08,-000.07,-000.16,-000.22,-000.05,27.1,00.0,0665.5,34.6
2016-10-30T01:21:00Z,0000380,01000600,0000.80,0000.26,-000.10,0000.19,0000.50,-000.16,0000.37,0000.30,0000.03,27.1,00.0,0665.5,34.6
2016-10-30T01:22:00Z,0000380,01000600,0000.01,0000.43,-000.03,0000.39,-000.44,0000.16,-000.15,-000.13,0000.28,27.1,00.0,0665.5,34.6
2016-10-30T01:23:00Z,0000380,01000600,0000.55,-000.29,-000.13,0000.06,0000.03,0000.18,0000.30,0000.45,0000.31,27.1,00.0,0665.5,34.6
2016-10-30T01:24:00Z,0000380,01000600,0000.33,-000.14,0000.36,-000.26,0000.02,0000.32,0000.15,-000.04,-000.42,27.1,00.0,0665.5,34.6
2016-10-30T01:25:00Z,0000380,01000600,0000.57,0001.12,-000.23,0000.53,-000.22,0000.08,-000.19,-000.05,0000.21,27.1,00.0,0665.5,34.6
2016-10-30T01:26:00Z,0000380,01000600,0000.87,0000.59,-000.03,0000.43,0000.02,0000.45,0000.15,0000.01,-000.22,27.1,00.0,0665.5,34.6
2016-10-30T01:27:00Z,0000380,01000600,0000.91,0000.15,-000.04,-000.35,0000.54,-000.04,-000.03,0000.15,0000.09,27.0,00.0,0665.5,34.5
2016-10-30T01:28:00Z,0000380,01000600,0000.86,-000.05,-000.00,-000.42,0000.13,-000.06,0000.33,0000.10,0000.20,27.0,00.0,0665.5,34.5
2016-10-30T01:29:00Z,0000380,01000600,0000.12,0000.33,-000.04,0000.30,0000.27,0000.09,-000.11,-000.01,0000.39,26.9,00.0,0665.5,34.5
2016-10-30T01:30:00Z,0000380,01000600,-000.79,0000.66,0000.39,-000.40,0000.29,0000.34,0000.21,0000.07,-000.32,26.9,00.0,0665.5,34.6
2016-10-30T01:31:00Z,0000380,01000600,-000.27,-000.70,0000.19,-000.24,0000.38,-000.21,0000.21,0000.42,0000.32,26.9,00.0,0665.5,34.6
2016-10-30T01:32:00Z,0000380,01000600,0000.43,0000.58,0000.22,0000.34,0000.22,0000.50,-000.19,-000.04,0000.01,27.0,00.0,0665.5,34.6
2016-10-30T01:33:00Z,0000380,01000600,-000.67,0000.28,0000.11,0000.33,0000.13,0000.38,0000.44,0000.15,-000.16,27.0,00.0,0665.5,34.6
2016-10-30T01:34:00Z,0000380,01000600,0001.86,0000.62,0000.20,-000.59,0000.34,0000.39,0000.12,-000.07,-000.03,26.9,00.0,0665.5,34.6
2016-10-30T01:35:00Z,0000380,01000600,0000.59,0000.19,0000.15,0000.55,-000.23,-000.26,0000.15,0000.10,0000.24,27.0,00.0,0665.5,34.6
2016-10-30T01:36:00Z,0000380,01000600,0000.59,0000.57,-000.06,0000.08,0000.26,-000.00,-000.03,0000.34,0000.20,27.0,00.0,0665.5,34.6
2016-10-30T01:37:00Z,0000380,01000600,0000.05,0000.07,0000.08,0000.26,0000.24,0000.40,0000.33,0000.19,0000.40,27.0,00.0,0665.5,34.6
2016-10-30T01:38:00Z,0000380,01000600,0000.18,0000.41,0000.13,-000.12,0000.46,0000.32,0000.13,0000.06,-000.13,27.0,00.0,0665.5,34.6
2016-10-30T01:39:00Z,0000380,01000600,0001.34,0000.28,0000.75,-000.14,0000.09,0000.07,0000.25,0000.26,0000.29,27.0,00.0,0665.5,34.6
2016-10-30T01:40:00Z,0000380,01000600,0001.03,0000.25,0001.03,0000.07,0000.14,0000.30,-000.02,-000.05,0000.32,27.0,00.0,0665.5,34.6
2016-10-30T01:41:00Z,0000380,01000600,0000.59,0000.58,-000.00,-000.26,0000.03,0000.30,0000.19,0000.35,-000.12,27.1,00.0,0665.4,34.6
2016-10-30T01:42:00Z,0000380,01000600,0000.14,-000.40,-000.01,0000.73,-000.11,-000.18,0000.07,-000.19,-000.02,27.1,00.0,0665.5,34.6
2016-10-30T01:43:00Z,0000380,01000600,-000.78,-000.19,-000.41,0000.43,0000.26,-000.35,-000.08,0000.16,0000.09,27.0,00.0,0665.5,34.6
2016-10-30T01:44:00Z,0000380,01000600,0000.66,0000.21,0000.36,0000.31,0000.21,0000.75,0000.26,0000.13,0000.17,27.0,00.0,0665.5,34.6
2016-10-30T01:45:00Z,0000380,01000600,0000.48,0000.62,0000.67,0000.14,0000.23,0000.23,0000.05,0000.10,0000.06,27.0,00.0,0665.5,34.6
2016-10-30T01:46:00Z,0000380,01000600,0000.36,0000.04,0000.43,0000.70,0000.28,0000.41,0000.17,0000.16,0000.04,27.0,00.0,0665.5,34.6
2016-10-30T01:47:00Z,0000380,01000600,-001.55,0000.23,0000.39,0000.46,0000.12,0000.07,0000.14,0000.12,0000.05,27.0,00.0,0665.4,34.6
2016-10-30T01:48:00Z,0000380,01000600,0000.57,0000.46,0000.02,0000.29,-000.25,-000.11,0000.04,0000.11,-000.10,27.0,00.0,0665.5,34.6
2016-10-30T01:49:00Z,0000380,01000600,0000.29,0000.47,-000.07,0000.41,0000.31,0000.44,0000.15,0000.11,0000.59,27.0,00.0,0665.4,34.6
2016-10-30T01:50:00Z,0000380,01000600,0000.85,0000.58,0000.41,0000.42,0000.59,0000.46,0000.17,0000.08,-000.36,27.0,00.0,0665.5,34.6
2016-10-30T01:51:00Z,0000380,01000600,0000.47,0000.42,0000.25,-000.31,0000.32,0000.10,0000.27,0000.14,0000.32,27.1,00.0,0665.5,34.6
2016-10-30T01:52:00Z,0000380,01000600,0000.68,0000.48,0000.32,-000.57,0000.13,0000.49,0000.06,0000.18,-000.04,27.1,00.0,0665.5,34.6
2016-10-30T01:53:00Z,0000380,01000600,-000.23,0000.33,0000.12,0000.34,0000.36,0000.01,0000.12,0000.21,0000.34,27.1,00.0,0665.4,34.6
2016-10-30T01:54:00Z,0000380,01000600,-000.58,0000.21,-000.03,-000.14,-000.03,0000.28,0000.02,-000.06,-000.09,27.0,00.0,0665.4,34.6
2016-10-30T01:55:00Z,0000380,01000600,0001.20,0000.59,-000.19,0000.29,0000.24,-000.02,0000.23,0000.00,-000.11,27.0,00.0,0665.5,34.5
2016-10-30T01:56:00Z,0000380,01000600,-000.06,0000.18,0000.09,0000.27,-000.37,0000.30,-000.07,-000.18,-000.18,27.0,00.0,0665.5,34.5
2016-10-30T01:57:00Z,0000380,41000600,,,,,,,,,,27.0,00.0,0665.4,34.5
2016-10-30T01:58:00Z,0000380,61000600,,,,,,,,,,26.8,00.0,0664.4,34.5
2016-10-30T01:59:00Z,0000380,21000600,,,,,,,,,,26.8,00.0,0664.4,34.5
2016-10-30T02:00:00Z,0000380,21000600,,,,,,,,,,26.8,00.0,0664.4,34.5
2016-10-30T02:01:00Z,0000380,21000600,,,,,,,,,,26.8,00.0,0664.4,34.5
2016-10-30T02:02:00Z,0000380,21000600,,,,,,,,,,26.8,00.0,0664.4,34.5
2016-10-30T02:03:00Z,0000380,61000600,,,,,,,,,,26.8,00.0,0664.4,34.6
2016-10-30T02:04:00Z,0000380,41000600,0000.58,0000.05,0000.47,-000.18,0000.02,-000.46,-000.05,0000.04,0000.38,26.8,00.0,0665.4,34.6
2016-10-30T02:05:00Z,0000380,01000600,0000.82,0000.76,0000.54,-000.68,0000.26,-000.08,0000.09,0000.04,-000.13,26.9,00.0,0665.5,34.6
2016-10-30T02:06:00Z,0000380,01000600,-000.60,0000.40,0000.98,0000.64,0000.20,0000.15,0000.16,0000.13,0000.00,26.9,00.0,0665.5,34.6
2016-10-30T02:07:00Z,0000380,01000600,0001.45,0000.32,0000.18,0000.40,0000.16,-000.22,-000.11,0000.03,0000.26,26.9,00.0,0665.5,34.6
2016-10-30T02:08:00Z,0000380,01000600,0001.14,0000.83,0000.95,-000.29,0000.57,-000.03,0000.16,0000.37,0000.09,26.9,00.0,0665.5,34.6
2016-10-30T02:09:00Z,0000380,01000600,0000.54,-000.06,0001.13,-000.32,0000.61,0000.04,0000.39,0000.32,0000.36,26.9,00.0,0665.5,34.6
2016-10-30T02:10:00Z,0000380,01000600,0000.68,0000.23,0001.57,-000.04,0000.05,0000.26,0000.11,-000.00,-000.25,26.9,00.0,0665.5,34.6
2016-10-30T02:11:00Z,0000380,01000600,0000.33,0000.80,0000.50,0000.58,0000.22,-000.28,0000.11,0000.07,0000.06,26.9,00.0,0665.5,34.6
2016-10-30T02:12:00Z,0000380,01000600,0001.46,0001.36,0000.76,0000.22,0000.13,-000.09,0000.02,0000.10,0000.35,27.0,00.0,0665.5,34.6
2016-10-30T02:13:00Z,0000380,01000600,0000.68,0000.78,0000.84,-000.21,0000.46,0000.05,0000.31,0000.27,0000.03,27.0,00.0,0665.5,34.6
2016-10-30T02:14:00Z,0000380,01000600,0000.62,0001.71,0000.26,0000.43,0000.35,0000.28,0000.14,0000.03,0000.43,27.0,00.0,0665.5,34.6
2016-10-30T02:15:00Z,0000380,01000600,0000.61,0000.27,0000.72,0000.20,0000.31,0000.18,0000.03,0000.09,-000.17,27.0,00.0,0665.5,34.6
2016-10-30T02:16:00Z,0000380,01000600,0001.04,0000.89,0000.36,0000.28,0000.08,0000.15,0000.13,-000.02,-000.28,27.0,00.0,0665.5,34.6
2016-10-30T02:17:00Z,0000380,01000600,0000.96,0000.75,0000.29,0000.63,0000.11,-000.53,0000.06,0000.26,0000.26,27.0,00.0,0665.5,34.6
2016-10-30T02:18:00Z,0000380,01000600,0000.47,0000.96,0000.01,0000.12,0000.32,-000.07,0000.39,0000.13,0000.23,27.1,00.0,0665.5,34.6
2016-10-30T02:19:00Z,0000380,01000600,-000.24,0000.54,0000.80,0000.58,0000.06,0000.00,0000.08,0000.24,0000.14,27.1,00.0,0665.5,34.6
2016-10-30T02:20:00Z,0000380,01000600,0001.14,0000.70,0000.82,-000.37,0000.50,0000.37,0000.45,0000.25,0000.30,27.1,00.0,0665.5,34.6
2016-10-30T02:21:00Z,0000380,01000600,0000.38,0001.05,0000.34,0000.42,0000.25,0000.14,-000.02,0000.06,0000.06,27.1,00.0,0665.5,34.6
2016-10-30T02:22:00Z,0000380,01000600,0000.20,0001.28,0000.75,0001.26,0000.27,-000.21,0000.28,0000.13,-000.15,27.1,00.0,0665.5,34.6
2016-10-30T02:23:00Z,0000380,01000600,0000.19,0000.57,0000.19,0000.18,-000.24,-000.06,0000.14,0000.13,0000.27,27.2,00.0,0665.5,34.6
2016-10-30T02:24:00Z,0000380,01000600,-000.11,0001.72,0000.53,0000.70,0000.14,0000.22,0000.27,0000.49,0000.23,27.2,00.0,0665.4,34.6
2016-10-30T02:25:00Z,0000380,01000600,0000.98,0000.55,0000.69,0000.01,-000.19,0000.32,0000.09,-000.02,0000.14,27.2,00.0,0665.4,34.6
2016-10-30T02:26:00Z,0000380,01000600,-000.82,0001.71,0000.28,0000.04,0000.38,0000.26,0000.33,0000.33,0000.19,27.2,00.0,0665.4,34.6
2016-10-30T02:27:00Z,0000380,01000600,-000.54,0000.84,0000.59,-000.24,-000.15,-000.19,0000.32,-000.01,0000.02,27.1,00.0,0665.4,34.6
2016-10-30T02:28:00Z,0000380,01000600,0001.36,0000.82,0000.88,0000.33,0000.48,0000.39,0000.19,0000.26,0000.52,27.1,00.0,0665.4,34.5
2016-10-30T02:29:00Z,0000380,01000600,0000.74,0000.26,0000.52,0000.42,0000.61,-000.01,-000.06,0000.07,-000.07,27.1,00.0,0665.4,34.5
2016-10-30T02:30:00Z,0000380,01000600,0001.32,0001.52,0000.29,0000.82,-000.01,0000.15,0000.20,0000.23,0000.03,27.1,00.0,0665.4,34.6
2016-10-30T02:31:00Z,0000380,01000600,0000.37,0000.81,0001.10,0000.28,0000.48,0000.18,0000.09,-000.01,0000.02,27.0,00.0,0665.4,34.6
2016-10-30T02:32:00Z,0000380,01000600,0001.13,0001.33,0000.37,0000.34,0000.05,0000.15,-000.00,0000.11,-000.05,27.1,00.0,0665.4,34.6
2016-10-30T02:33:00Z,0000380,01000600,0001.10,0000.06,0001.23,0000.21,0000.61,0000.36,-000.02,-000.01,0000.04,27.1,00.0,0665.4,34.6
2016-10-30T02:34:00Z,0000380,01000600,0001.55,0000.89,0000.83,0000.04,0000.54,0000.15,0000.21,0000.05,0000.04,27.1,00.0,0665.4,34.6
2016-10-30T02:35:00Z,0000380,01000600,0000.81,0000.41,0000.67,0000.16,0000.42,0000.41,0000.17,0000.15,-000.04,27.1,00.0,0665.4,34.6
2016-10-30T02:36:00Z,0000380,01000600,0000.43,0001.06,0000.17,-000.07,0000.17,0000.07,-000.02,-000.06,0000.44,27.1,00.0,0665.4,34.6
2016-10-30T02:37:00Z,0000380,01000600,0000.79,-000.08,0000.14,-000.06,0000.67,0000.10,0000.55,0000.44,0000.31,27.2,00.0,0665.3,34.6
2016-10-30T02:38:00Z,0000380,01000600,-000.17,0000.64,0000.59,0000.29,-000.16,0000.37,-000.06,0000.16,-000.10,27.2,00.0,0665.3,34.6
2016-10-30T02:39:00Z,0000380,01000600,0000.80,0001.35,0000.78,-000.01,0000.43,0000.22,-000.01,-000.04,0000.22,27.2,00.0,0665.3,34.6
2016-10-30T02:40:00Z,0000380,01000600,-000.16,0000.55,0000.14,0000.61,0000.54,-000.15,0000.22,0000.23,0000.09,27.2,00.0,0665.4,34.6
2016-10-30T02:41:00Z,0000380,01000600,0000.64,0000.08,0000.56,0000.61,0000.42,0000.55,0000.11,-000.07,-000.03,27.2,00.0,0665.4,34.6
2016-10-30T02:42:00Z,0000380,01000600,0001.20,0000.27,0000.76,0000.46,0000.90,0000.15,0000.29,0000.29,0000.27,27.2,00.0,0665.4,34.6
2016-10-30T02:43:00Z,0000380,01000600,-000.06,0000.25,0000.57,-000.17,0000.15,-000.08,0000.08,-000.05,-000.12,27.2,00.0,0665.4,34.6
2016-10-30T02:44:00Z,0000380,01000600,0000.88,0000.82,0000.79,0000.70,0000.12,0000.52,0000.05,0000.16,-000.03,27.2,00.0,0665.4,34.6
2016-10-30T02:45:00Z,0000380,01000600,0000.74,-000.37,0000.32,0000.70,0000.42,0000.11,0000.19,0000.22,0000.18,27.2,00.0,0665.4,34.6
2016-10-30T02:46:00Z,0000380,01000600,0000.23,0000.35,0000.28,0000.31,0000.13,-000.25,0000.18,-000.03,0000.08,27.2,00.0,0665.3,34.6
2016-10-30T02:47:00Z,0000380,01000600,0000.74,0001.22,0000.32,0000.29,0000.47,-000.23,0000.11,0000.15,0000.08,27.2,00.0,0665.4,34.6
2016-10-30T02:48:00Z,0000380,01000600,0001.29,0000.61,0000.57,-000.14,0000.44,0000.11,-000.11,0000.11,-000.05,27.3,00.0,0665.3,34.6
2016-10-30T02:49:00Z,0000380,01000600,0001.57,0000.94,-000.02,-000.15,0000.41,-000.03,0000.12,0000.02,-000.06,27.3,00.0,0665.3,34.6
2016-10-30T02:50:00Z,0000380,01000600,0000.62,0000.35,0000.16,-000.35,0000.42,0000.08,-000.00,-000.01,0000.22,27.3,00.0,0665.3,34.6
2016-10-30T02:51:00Z,0000380,01000600,0001.63,0001.24,0000.72,-000.08,0000.61,0000.49,0000.09,0000.06,0000.09,27.3,00.0,0665.3,34.6
2016-10-30T02:52:00Z,0000380,01000600,0000.53,0000.70,0000.37,-000.05,0000.37,0000.12,-000.07,0000.11,-000.08,27.3,00.1,0665.3,34.6
2016-10-30T02:53:00Z,0000380,01000600,0000.94,0000.83,0000.72,0000.24,0000.45,-000.56,0000.10,0000.10,-000.08,27.2,00.0,0665.3,34.6
2016-10-30T02:54:00Z,0000380,01000600,0001.25,0000.73,0000.44,0000.31,-000.22,-000.23,-000.03,-000.14,-000.13,27.2,00.0,0665.3,34.6
2016-10-30T02:55:00Z,0000380,01000600,0001.36,0001.17,0000.72,0000.42,0000.72,0000.31,0000.09,-000.01,0000.08,27.2,00.0,0665.3,34.6
2016-10-30T02:56:00Z,0000380,01000600,-000.44,0000.10,0000.40,-000.10,0000.23,0000.32,0000.17,0000.17,0000.20,27.1,00.0,0665.3,34.5
2016-10-30T02:57:00Z,0000380,41000600,,,,,,,,,,27.1,00.0,0665.2,34.5
2016-10-30T02:58:00Z,0000380,61000600,,,,,,,,,,26.9,00.0,0664.2,34.5
2016-10-30T02:59:00Z,0000380,21000600,,,,,,,,,,26.9,00.0,0664.2,34.5
2016-10-30T03:00:00Z,0000380,21000600,,,,,,,,,,26.9,00.0,0664.2,34.5
2016-10-30T03:01:00Z,0000380,21000600,,,,,,,,,,26.9,00.0,0664.2,34.5
2016-10-30T03:02:00Z,0000380,21000600,,,,,,,,,,26.9,00.0,0664.1,34.5
2016-10-30T03:03:00Z,0000380,61000600,,,,,,,,,,26.9,00.0,0664.1,34.5
2016-10-30T03:04:00Z,0000380,41000600,0000.61,-000.26,0000.03,0000.31,-000.33,-000.31,0000.07,0000.10,-000.08,26.9,00.0,0665.1,34.5
2016-10-30T03:05:00Z,0000380,01000600,0000.81,0000.50,0000.05,0000.12,-000.00,-000.23,0000.28,-000.11,-000.22,26.9,00.0,0665.2,34.6
2016-10-30T03:06:00Z,0000380,01000600,0000.75,-000.10,0000.40,-000.06,0000.45,-000.19,0000.08,0000.35,0000.56,26.9,00.0,0665.2,34.6
2016-10-30T03:07:00Z,0000380,01000600,0001.06,0000.60,0000.31,0000.47,0000.37,-000.12,-000.04,-000.12,-000.10,27.0,00.0,0665.2,34.6
2016-10-30T03:08:00Z,0000380,01000600,0000.63,0000.12,0000.35,0000.46,-000.16,-000.22,0000.11,0000.13,-000.16,27.0,00.0,0665.2,34.6
2016-10-30T03:09:00Z,0000380,01000600,0000.71,-000.14,-000.28,-000.15,0000.32,-000.06,0000.08,0000.08,0000.36,27.0,00.0,0665.2,34.6
2016-10-30T03:10:00Z,0000380,01000600,0001.63,0000.64,-000.10,-000.46,0000.06,0000.07,0000.06,0000.25,0000.05,27.0,00.0,0665.1,34.6
2016-10-30T03:11:00Z,0000380,01000600,0000.38,0000.29,0000.50,0000.36,0000.17,-000.16,-000.04,-000.06,0000.18,27.0,00.0,0665.1,34.6